Location: Bilsen
(53.7722°N, 9.8765°E)
Time: 09:44:35
(UTC+00:00)

Cosmos 2322 Rocket - Pass Details

Date: 18 February 2020
Orbit: 832 x 851 km, 71.0° (Epoch: 29 March)

Event Time Altitude Azimuth Distance (km) Brightness Sun altitude
Exits shadow 01:59:40 21° 12° (NNE) 1,820 4.3 -39.2°
Drops below altitude 10° 02:01:46 10° 25° (NNE) 2,492 5.2 -39.0°
Sets 02:04:24 0° 33° (NNE) 3,431 6.2 -38.7°
